Fresno, CA

7:48 AM PDT on September 19, 2017 (GMT -0700)
Fresno Yosemite International

Weather History for KFAT - May, 2013

Change the Weather History Date:

Monday, May 6, 2013

  Actual Average Record
Temperature  
Mean Temperature 71 °F 68 °F  
Max Temperature 78 °F 81 °F 100 °F (1987)
Min Temperature 63 °F 54 °F 41 °F (1950)
Degree Days  
Heating Degree Days 0    
Month to date heating degree days 0  
Since 1 July heating degree days 1741  
Cooling Degree Days 6    
Month to date cooling degree days 60  
Year to date cooling degree days 207  
Growing Degree Days 20 (Base 50)    
Moisture  
Dew Point 44 °F    
Average Humidity 41    
Maximum Humidity 52    
Minimum Humidity 29    
Precipitation  
Precipitation T in 0.02 in 1.25 in (1883)
Month to date precipitation T 0.12  
Year to date precipitation 2.21 7.32  
Since 1 July precipitation 5.60  
Snow  
Snow 0.00 in - - ()
Month to date snowfall 0.0  
Since 1 July snowfall 0.0  
Snow Depth 0.00 in    
Sea Level Pressure  
Sea Level Pressure 29.87 in    
Wind  
Wind Speed 7 mph (WSW)    
Max Wind Speed 18 mph    
Max Gust Speed 23 mph    
Visibility 10 miles    
Events Rain    
T = Trace of Precipitation, MM = Missing Value Source: NWS Daily Summary

Daily Weather History Graph

Daily Weather History Graph

Search for Another Location

Airport or City:

Trip Planner

Search our weather history database for the weather conditions in past years. The results will help you decide how hot, cold, wet, or windy it might be!

Date:

Astronomy

May. 06, 2013 Rise Set
Actual Time 5:59 AM PDT 7:52 PM PDT
Civil Twilight 5:31 AM PDT 8:20 PM PDT
Nautical Twilight 4:56 AM PDT 8:54 PM PDT
Astronomical Twilight 4:20 AM PDT 9:31 PM PDT
Moon 3:59 AM PDT (5/6) 5:01 PM PDT (5/6)
Length of Visible Light 14h 49m
Length of Day
13h 52m
Waning Crescent, 10% of the Moon is Illuminated
May 6
Waning Crescent
May 9
New
May 17
First Quarter
May 24
Full
May 31
Last Quarter

Hourly Weather History & Observations

Time (PDT) Temp. Dew Point Humidity Pressure Visibility Wind Dir Wind Speed Gust Speed Precip Events Conditions
12:53 AM 64.9 °F 45.0 °F 48% 29.84 in 10.0 mi SW 6.9 mph - N/A   Overcast
1:53 AM 64.9 °F 44.1 °F 47% 29.85 in 10.0 mi SSW 8.1 mph - N/A   Overcast
2:53 AM 64.0 °F 44.1 °F 48% 29.85 in 10.0 mi SW 11.5 mph - N/A   Overcast
3:53 AM 64.0 °F 43.0 °F 46% 29.85 in 10.0 mi SW 6.9 mph - N/A   Overcast
4:53 AM 64.0 °F 43.0 °F 46% 29.85 in 10.0 mi WSW 6.9 mph - N/A   Overcast
5:53 AM 63.0 °F 44.1 °F 50% 29.86 in 10.0 mi Calm Calm - N/A   Overcast
6:53 AM 63.0 °F 45.0 °F 52% 29.87 in 10.0 mi East 3.5 mph - N/A   Overcast
7:53 AM 64.9 °F 45.0 °F 48% 29.87 in 10.0 mi ENE 3.5 mph - N/A   Overcast
8:53 AM 66.9 °F 44.1 °F 44% 29.88 in 10.0 mi Calm Calm - N/A   Scattered Clouds
9:53 AM 70.0 °F 43.0 °F 38% 29.88 in 10.0 mi NNE 4.6 mph - N/A   Mostly Cloudy
10:53 AM 72.0 °F 43.0 °F 35% 29.89 in 10.0 mi SW 9.2 mph - N/A   Mostly Cloudy
11:53 AM 73.9 °F 43.0 °F 33% 29.88 in 10.0 mi Variable 6.9 mph - N/A   Scattered Clouds
12:53 PM 73.9 °F 42.1 °F 32% 29.87 in 10.0 mi Variable 6.9 mph 16.1 mph N/A   Scattered Clouds
1:53 PM 75.9 °F 43.0 °F 31% 29.86 in 10.0 mi South 10.4 mph - N/A   Mostly Cloudy
2:53 PM 75.9 °F 41.0 °F 29% 29.85 in 10.0 mi Calm Calm - N/A   Mostly Cloudy
3:53 PM 75.0 °F 44.1 °F 33% 29.83 in 10.0 mi SSW 16.1 mph 21.9 mph N/A   Mostly Cloudy
4:53 PM 75.9 °F 44.1 °F 32% 29.83 in 10.0 mi SW 8.1 mph 18.4 mph N/A   Mostly Cloudy
5:53 PM 73.9 °F 44.1 °F 34% 29.83 in 10.0 mi SW 11.5 mph - N/A   Mostly Cloudy
6:53 PM 73.9 °F 43.0 °F 33% 29.83 in 10.0 mi WSW 10.4 mph - N/A   Mostly Cloudy
7:53 PM 72.0 °F 43.0 °F 35% 29.86 in 10.0 mi SW 9.2 mph - N/A   Mostly Cloudy
8:53 PM 69.1 °F 43.0 °F 39% 29.90 in 10.0 mi WNW 11.5 mph - N/A   Mostly Cloudy
9:53 PM 68.0 °F 43.0 °F 40% 29.93 in 10.0 mi NW 13.8 mph - N/A   Mostly Cloudy
10:53 PM 66.0 °F 48.0 °F 52% 29.94 in 10.0 mi North 6.9 mph - N/A   Overcast
11:53 PM 64.9 °F 48.9 °F 56% 29.96 in 10.0 mi North 5.8 mph - 0.00 in Rain Light Rain